�������C�����ː����j�^�v���󋵏��
Date,Time,Cs137(Bq/L),Cs134(Bq/L),�S��(Bq/L)
2020/04/15,00:00,-,-,30
2020/04/15,00:10,-,-,29
2020/04/15,00:20,-,-,30
2020/04/15,00:30,-,-,30
2020/04/15,00:40,-,-,32
2020/04/15,00:50,-,-,30
2020/04/15,01:00,-,-,31
2020/04/15,01:10,-,-,30
2020/04/15,01:20,-,-,28
2020/04/15,01:30,-,-,28
2020/04/15,01:40,-,-,28
2020/04/15,01:50,-,-,27
2020/04/15,02:00,-,-,25
2020/04/15,02:10,-,-,26
2020/04/15,02:20,-,-,25
2020/04/15,02:30,-,-,24
2020/04/15,02:40,-,-,23
2020/04/15,02:50,-,-,27
2020/04/15,03:00,-,-,27
2020/04/15,03:10,-,-,29
2020/04/15,03:20,-,-,30
2020/04/15,03:30,-,-,31
2020/04/15,03:40,-,-,31
2020/04/15,03:50,-,-,26
2020/04/15,04:00,-,-,28
2020/04/15,04:10,-,-,24
2020/04/15,04:20,-,-,23
2020/04/15,04:30,-,-,23
2020/04/15,04:40,-,-,23
2020/04/15,04:50,-,-,23
2020/04/15,05:00,-,-,21
2020/04/15,05:10,-,-,25
2020/04/15,05:20,-,-,21
2020/04/15,05:30,-,-,19
2020/04/15,05:40,-,-,17
2020/04/15,05:50,-,-,19
2020/04/15,06:00,-,-,20
2020/04/15,06:10,-,-,20
2020/04/15,06:20,-,-,23
2020/04/15,06:30,-,-,24
2020/04/15,06:40,-,-,27
2020/04/15,06:50,-,-,24
2020/04/15,07:00,-,-,24
2020/04/15,07:10,-,-,23
2020/04/15,07:20,-,-,26
2020/04/15,07:30,-,-,28
2020/04/15,07:40,-,-,29
2020/04/15,07:50,-,-,29
2020/04/15,08:00,-,-,31
2020/04/15,08:10,-,-,34
2020/04/15,08:20,-,-,32
2020/04/15,08:30,-,-,31
2020/04/15,08:40,-,-,28
2020/04/15,08:50,-,-,30
2020/04/15,09:00,-,-,27
2020/04/15,09:10,-,-,22
2020/04/15,09:20,-,-,20
2020/04/15,09:30,-,-,20
2020/04/15,09:40,-,-,20
2020/04/15,09:50,-,-,19
2020/04/15,10:00,-,-,22
2020/04/15,10:10,-,-,25
2020/04/15,10:20,-,-,24
2020/04/15,10:30,-,-,25
2020/04/15,10:40,-,-,27
2020/04/15,10:50,-,-,29
2020/04/15,11:00,-,-,28
2020/04/15,11:10,-,-,28
2020/04/15,11:20,-,-,30
2020/04/15,11:30,-,-,33
2020/04/15,11:40,-,-,30
2020/04/15,11:50,-,-,32
2020/04/15,12:00,-,-,33
2020/04/15,12:10,-,-,32
2020/04/15,12:20,-,-,31
2020/04/15,12:30,-,-,25
2020/04/15,12:40,-,-,25
2020/04/15,12:50,-,-,24
2020/04/15,13:00,-,-,21
2020/04/15,13:10,-,-,22
2020/04/15,13:20,-,-,21
2020/04/15,13:30,-,-,25
2020/04/15,13:40,-,-,26
2020/04/15,13:50,-,-,23
2020/04/15,14:00,-,-,25
2020/04/15,14:10,-,-,25
2020/04/15,14:20,-,-,28
2020/04/15,14:30,-,-,28
2020/04/15,14:40,-,-,28
2020/04/15,14:50,-,-,28
2020/04/15,15:00,-,-,28
2020/04/15,15:10,-,-,26
2020/04/15,15:20,-,-,24
2020/04/15,15:30,-,-,20
2020/04/15,15:40,-,-,23
2020/04/15,15:50,-,-,24
2020/04/15,16:00,-,-,23
2020/04/15,16:10,-,-,21
2020/04/15,16:20,-,-,22
2020/04/15,16:30,-,-,26
2020/04/15,16:40,-,-,24
2020/04/15,16:50,-,-,23
2020/04/15,17:00,-,-,25
2020/04/15,17:10,-,-,28
2020/04/15,17:20,-,-,26
2020/04/15,17:30,-,-,25
2020/04/15,17:40,-,-,26
2020/04/15,17:50,-,-,27
2020/04/15,18:00,-,-,26
2020/04/15,18:10,-,-,25
2020/04/15,18:20,-,-,25
2020/04/15,18:30,-,-,22
2020/04/15,18:40,-,-,22
2020/04/15,18:50,-,-,22
2020/04/15,19:00,-,-,24
2020/04/15,19:10,-,-,24
2020/04/15,19:20,-,-,26
2020/04/15,19:30,-,-,27
2020/04/15,19:40,-,-,27
2020/04/15,19:50,-,-,30
2020/04/15,20:00,-,-,27
2020/04/15,20:10,-,-,26
2020/04/15,20:20,-,-,26
2020/04/15,20:30,-,-,27
2020/04/15,20:40,-,-,27
2020/04/15,20:50,-,-,24
2020/04/15,21:00,-,-,27
2020/04/15,21:10,-,-,27
2020/04/15,21:20,-,-,28
2020/04/15,21:30,-,-,30
2020/04/15,21:40,-,-,32
2020/04/15,21:50,-,-,35
2020/04/15,22:00,-,-,30
2020/04/15,22:10,-,-,31
2020/04/15,22:20,-,-,28
2020/04/15,22:30,-,-,27
2020/04/15,22:40,-,-,26
2020/04/15,22:50,-,-,23
2020/04/15,23:00,-,-,25
2020/04/15,23:10,-,-,25
2020/04/15,23:20,-,-,25
2020/04/15,23:30,-,-,28
2020/04/15,23:40,-,-,29
2020/04/15,23:50,-,-,30
